Location: Albany
(35.0000°S, 118.0000°E)
Time: 17:56:11
(UTC-05:00)

ISS - All Passes

Search period start: 23 January 2017 00:00
Search period end: 02 February 2017 00:00
Orbit: 399 x 410 km, 51.6° (Epoch: 24 January)

Date Brightness Start Highest point End Pass type
(mag) Time Alt. Az. Time Alt. Az. Time Alt. Az.
23 Jan - 01:43:39 10° S 01:45:13 13° SSE 01:46:46 10° SE daylight
23 Jan - 03:18:46 10° SW 03:22:09 86° SE 03:25:30 10° NE daylight
23 Jan - 18:21:42 10° NNE 18:23:19 13° NE 18:24:56 10° E daylight
23 Jan - 19:56:14 10° WNW 19:59:27 48° SW 20:02:44 10° SE daylight
24 Jan - 02:26:41 10° SW 02:29:55 41° SE 02:33:06 10° ENE daylight
24 Jan - 04:04:02 10° W 04:06:08 16° NW 04:08:13 10° NNW daylight
24 Jan - 19:03:56 10° NW 19:07:14 79° NE 19:10:35 10° SE daylight
24 Jan - 20:42:17 10° WSW 20:44:06 14° SSW 20:45:55 10° S daylight
25 Jan - 01:34:47 10° SSW 01:37:34 23° SSE 01:40:19 10° E daylight
25 Jan - 03:11:02 10° WSW 03:14:05 32° NW 03:17:05 10° NNE daylight
25 Jan - 18:12:03 10° NNW 18:15:05 35° NE 18:18:10 10° ESE daylight
25 Jan - 19:48:59 10° W 19:51:38 21° SSW 19:54:19 10° SSE daylight
26 Jan - 00:43:08 10° S 00:45:07 15° SSE 00:47:05 10° ESE daylight
26 Jan - 02:18:34 10° SW 02:21:56 72° NW 02:25:15 10° NE daylight
26 Jan - 17:20:48 10° N 17:23:01 17° NE 17:25:14 10° E daylight
26 Jan - 18:56:07 10° WNW 18:59:15 37° SW 19:02:25 10° SSE daylight
27 Jan - 01:26:23 10° SW 01:29:41 52° SE 01:32:58 10° ENE daylight
27 Jan - 03:04:26 10° WNW 03:05:48 12° NW 03:07:10 10° NNW daylight
27 Jan - 18:03:39 10° NW 18:06:57 78° SW 18:10:18 10° SE daylight
27 Jan - 19:42:34 10° SW 19:43:55 12° SSW 19:45:16 10° S daylight
28 Jan - 00:34:23 10° SSW 00:37:20 28° SE 00:40:16 10° E daylight
28 Jan - 02:10:56 10° WSW 02:13:44 25° NW 02:16:31 10° N daylight
28 Jan - 17:11:34 10° NNW 17:14:44 46° NE 17:17:57 10° ESE daylight
28 Jan - 18:49:00 10° WSW 18:51:24 18° SSW 18:53:49 10° SSE daylight
28 Jan - 23:42:34 10° SSW 23:44:52 17° SSE 23:47:10 10° ESE daylight
29 Jan - 01:18:17 10° WSW 01:21:35 53° NW 01:24:50 10° NNE daylight
29 Jan - 16:20:01 10° N 16:22:36 21° NE 16:25:12 10° ESE daylight
29 Jan - 17:55:57 10° W 17:58:56 30° SW 18:01:57 10° SSE daylight
29 Jan - 22:51:13 10° S 22:52:19 11° SSE 22:53:24 10° SE daylight
30 Jan - 00:25:58 10° SW 00:29:20 69° SE 00:32:39 10° NE daylight
30 Jan - 15:29:58 10° NE 15:30:31 10° NE 15:31:04 10° ENE visible
30 Jan - 17:03:18 10° WNW 17:06:34 59° SW 17:09:53 10° SE daylight
30 Jan - 18:43:04 10° SSW 18:43:39 10° SSW 18:44:14 10° SSW daylight
30 Jan - 23:33:52 10° SSW 23:36:59 34° SE 23:40:04 10° ENE daylight
31 Jan - 01:10:48 10° W 01:13:17 19° NW 01:15:44 10° N daylight
31 Jan - 16:11:02 10° NW 16:14:17 62° NE 16:17:35 10° SE daylight
31 Jan - 17:48:57 10° WSW 17:51:03 15° SSW 17:53:10 10° S daylight
31 Jan - 22:41:56 10° SSW 22:44:31 20° SSE 22:47:04 10° E daylight
01 Feb - 00:17:56 10° WSW 00:21:07 40° NW 00:24:16 10° NNE daylight
01 Feb - 15:19:13 10° NNW 15:22:05 28° NE 15:24:58 10° ESE visible
01 Feb - 16:55:43 10° W 16:58:32 25° SW 17:01:22 10° SSE daylight
01 Feb - 21:50:20 10° S 21:51:57 13° SSE 21:53:34 10° SE daylight
01 Feb - 23:25:29 10° SW 23:28:51 89° SSE 23:32:11 10° NE daylight
